This is the latest recevied weather packets stored in our database for station/object DJ2DS-13. If no packets are shown the sender has not sent any weather packets the latest 10 day(s).
| Time | Temp. | Humidity | Pressure | Rain* | Wind** | Luminosity | Snow |
|---|---|---|---|---|---|---|---|
| 1778073769 | 12.78° C | 74% | 1008.8 hPa | 0 mm | - | 411 W/m² | - |
| 1778073468 | 13.33° C | 74% | 1008.8 hPa | 0 mm | - | 445 W/m² | - |
| 1778073169 | 13.33° C | 71% | 1008.8 hPa | 0 mm | - | 503 W/m² | - |
| 1778072868 | 13.33° C | 70% | 1008.7 hPa | 0 mm | - | 501 W/m² | - |
| 1778072569 | 13.89° C | 71% | 1008.6 hPa | 0 mm | - | 489 W/m² | - |
| 1778072269 | 13.89° C | 71% | 1008.7 hPa | 0 mm | - | 462 W/m² | - |
| 1778071966 | 13.89° C | 71% | 1008.7 hPa | 0 mm | - | 521 W/m² | - |
| 1778071666 | 13.89° C | 70% | 1008.6 hPa | 0 mm | - | 473 W/m² | - |
| 1778071367 | 13.89° C | 69% | 1008.6 hPa | 0 mm | - | 452 W/m² | - |
| 1778071064 | 13.89° C | 67% | 1008.6 hPa | 0 mm | - | 457 W/m² | - |
| 1778070765 | 13.33° C | 67% | 1008.6 hPa | 0 mm | - | 452 W/m² | - |
| 1778070465 | 13.89° C | 66% | 1008.5 hPa | 0 mm | - | 477 W/m² | - |
| 1778070165 | 13.89° C | 67% | 1008.5 hPa | 0 mm | - | 443 W/m² | - |
| 1778069864 | 13.33° C | 66% | 1008.5 hPa | 0 mm | - | 438 W/m² | - |
| 1778069563 | 13.33° C | 67% | 1008.5 hPa | 0 mm | - | 452 W/m² | - |
| 1778069263 | 13.33° C | 66% | 1008.4 hPa | 0 mm | - | 443 W/m² | - |
| 1778068963 | 13.33° C | 68% | 1008.5 hPa | 0 mm | - | 447 W/m² | - |
| 1778068663 | 13.33° C | 67% | 1008.5 hPa | 0 mm | - | 419 W/m² | - |
| 1778068364 | 13.33° C | 65% | 1008.4 hPa | 0 mm | - | 420 W/m² | - |
| 1778068063 | 13.89° C | 66% | 1008.5 hPa | 0 mm | - | 426 W/m² | - |
| 1778067763 | 13.89° C | 66% | 1008.4 hPa | 0 mm | - | 452 W/m² | - |
| 1778067471 | 13.89° C | 66% | 1008.5 hPa | 0 mm | - | 512 W/m² | - |
| 1778067169 | 13.33° C | 65% | 1008.5 hPa | 0 mm | - | 526 W/m² | - |
| 1778066870 | 13.33° C | 66% | 1008.4 hPa | 0 mm | - | 515 W/m² | - |
| 1778066568 | 13.33° C | 66% | 1008.5 hPa | 0 mm | - | 494 W/m² | - |
* Rain latest hour (hover to see other rain measurements)
** Current wind speed in m/s (hover to see current wind gust speed)